Weather History for KSAW - May, 2013

Change the Weather History Date:

Monday, May 27, 2013

  Actual Average (KESC) Record (KESC)
Temperature  
Mean Temperature 51 °F -  
Max Temperature 68 °F 62 °F 79 °F (1959)
Min Temperature 34 °F 46 °F 32 °F (2011)
Degree Days  
Heating Degree Days 14    
Growing Degree Days 1 (Base 50)    
Moisture  
Dew Point 33 °F    
Average Humidity 56    
Maximum Humidity 87    
Minimum Humidity 23    
Precipitation  
Precipitation 0.00 in - - ()
Sea Level Pressure  
Sea Level Pressure 30.13 in    
Wind  
Wind Speed 2 mph (SSE)    
Max Wind Speed 15 mph    
Max Gust Speed 23 mph    
Visibility 10 miles    
Events      
Averages and records for this station are not official NWS values.
T = Trace of Precipitation, MM = Missing Value Source: NWS Daily Summary

Daily Weather History Graph

Daily Weather History Graph

Search for Another Location

Airport or City:

Trip Planner

Search our weather history database for the weather conditions in past years. The results will help you decide how hot, cold, wet, or windy it might be!

Date:

Astronomy

May. 27, 2013 Rise Set
Actual Time 6:04 AM EDT 9:29 PM EDT
Civil Twilight 5:27 AM EDT 10:07 PM EDT
Nautical Twilight 4:38 AM EDT 10:56 PM EDT
Astronomical Twilight 3:35 AM EDT 12:00 AM EDT
Moon No Moon Rise 8:43 AM EDT
Length of Visible Light 16h 40m
Length of Day
15h 25m
Waning Gibbous, 91% of the Moon is Illuminated
May 27
Waning Gibbous
May 31
Last Quarter
Jun 8
New
Jun 16
First Quarter
Jun 23
Full

Hourly Weather History & Observations

Time (EDT) Temp. Dew Point Humidity Pressure Visibility Wind Dir Wind Speed Gust Speed Precip Events Conditions
12:17 AM 46.9 °F 31.8 °F 56% 30.24 in 10.0 mi Calm Calm - N/A   Clear
12:36 AM 46.0 °F 30.9 °F 56% 30.23 in 10.0 mi Calm Calm - N/A   Clear
12:57 AM 42.4 °F 31.8 °F 66% 30.23 in 10.0 mi Calm Calm - N/A   Clear
1:17 AM 40.5 °F 32.0 °F 72% 30.23 in 10.0 mi Calm Calm - N/A   Clear
1:37 AM 39.9 °F 30.4 °F 69% 30.23 in 10.0 mi Calm Calm - N/A   Clear
1:57 AM 39.7 °F 32.2 °F 74% 30.23 in 10.0 mi Calm Calm - N/A   Clear
2:16 AM 38.8 °F 31.8 °F 76% 30.23 in 10.0 mi Calm Calm - N/A   Clear
2:37 AM 39.6 °F 32.7 °F 76% 30.21 in 10.0 mi Calm Calm - N/A   Clear
2:57 AM 40.5 °F 32.5 °F 73% 30.19 in 10.0 mi Calm Calm - N/A   Clear
3:16 AM 38.3 °F 31.3 °F 76% 30.19 in 10.0 mi Calm Calm - N/A   Clear
3:37 AM 39.4 °F 31.5 °F 73% 30.18 in 10.0 mi Calm Calm - N/A   Clear
3:57 AM 36.0 °F 30.9 °F 82% 30.20 in 10.0 mi Calm Calm - N/A   Clear
4:17 AM 34.7 °F 30.0 °F 83% 30.20 in 10.0 mi Calm Calm - N/A   Clear
4:37 AM 35.4 °F 30.7 °F 83% 30.20 in 10.0 mi Calm Calm - N/A   Clear
4:57 AM 35.8 °F 30.2 °F 80% 30.19 in 10.0 mi Calm Calm - N/A   Clear
5:17 AM 35.8 °F 29.7 °F 78% 30.19 in 10.0 mi Calm Calm - N/A   Clear
5:37 AM 35.8 °F 30.7 °F 82% 30.19 in 10.0 mi Calm Calm - N/A   Clear
5:56 AM 36.3 °F 31.1 °F 81% 30.19 in 10.0 mi Calm Calm - N/A   Clear
6:55 AM 35.6 °F 32.0 °F 87% 30.19 in 10.0 mi Calm Calm - N/A   Clear
7:50 AM 46.4 °F 35.6 °F 66% 30.19 in 10.0 mi Calm Calm - N/A   Clear
9:55 AM 57.2 °F 39.2 °F 51% 30.18 in 10.0 mi SSE 3.5 mph - N/A   Clear
10:50 AM 59.0 °F 39.2 °F 48% 30.16 in 10.0 mi SSE 4.6 mph - N/A   Clear
11:50 AM 62.6 °F 37.4 °F 39% 30.15 in 10.0 mi SSE 9.2 mph - N/A   Clear
12:56 PM 64.4 °F 37.4 °F 37% 30.15 in 10.0 mi SSE 11.5 mph 17.3 mph N/A   Clear
1:50 PM 66.2 °F 35.6 °F 32% 30.13 in 10.0 mi South 11.5 mph 18.4 mph N/A   Clear
2:50 PM 68.0 °F 35.6 °F 30% 30.09 in 10.0 mi South 13.8 mph 20.7 mph N/A   Clear
3:55 PM 68.0 °F 32.0 °F 26% 30.07 in 10.0 mi SSE 15.0 mph 23.0 mph N/A   Clear
4:50 PM 68.0 °F 32.0 °F 26% 30.04 in 10.0 mi South 11.5 mph 16.1 mph N/A   Clear
5:50 PM 66.2 °F 32.0 °F 28% 30.05 in 10.0 mi South 13.8 mph - N/A   Clear
6:50 PM 66.2 °F 26.6 °F 23% 30.04 in 10.0 mi SE 8.1 mph - N/A   Clear
7:50 PM 64.4 °F 28.4 °F 26% 30.02 in 10.0 mi SE 5.8 mph - N/A   Clear
8:55 PM 62.6 °F 32.0 °F 32% 30.01 in 10.0 mi SSE 3.5 mph - N/A   Clear
9:50 PM 60.8 °F 33.8 °F 36% 30.00 in 10.0 mi SE 4.6 mph - N/A   Scattered Clouds
10:17 PM 59.5 °F 34.3 °F 39% 30.00 in 10.0 mi SSE 3.5 mph - N/A   Clear
10:37 PM 58.6 °F 35.1 °F 41% 30.00 in 10.0 mi Calm Calm - N/A   Scattered Clouds
10:57 PM 58.3 °F 35.2 °F 42% 30.00 in 10.0 mi Calm Calm - N/A   Clear
11:17 PM 57.9 °F 34.7 °F 42% 29.99 in 10.0 mi SE 4.6 mph - N/A   Clear
11:37 PM 57.4 °F 34.3 °F 42% 29.99 in 10.0 mi Calm Calm - N/A   Clear
11:56 PM 57.4 °F 32.9 °F 40% 29.98 in 10.0 mi Calm Calm - N/A   Clear